Time,TemperatureF,DewpointF,PressureIn,WindDirection,WindDirectionDegrees,WindSpeedMPH,WindSpeedGustMPH,Humidity,HourlyPrecipIn,Conditions,Clouds,dailyrainin,SoftwareType,DateUTC
2013-03-06 00:12:00,19.4,15.1,30.36,South,180,0.0,-999.0,83,-99.99,,,0.00,Acu-Link.com,2013-03-06 06:12:00,
2013-03-06 00:27:00,18.1,14.4,30.38,NW,315,2.2,-999.0,85,-99.99,,,0.00,Acu-Link.com,2013-03-06 06:27:00,
2013-03-06 00:42:00,18.1,14.6,30.37,West,270,0.0,-999.0,86,-99.99,,,0.00,Acu-Link.com,2013-03-06 06:42:00,
2013-03-06 00:57:00,18.0,14.8,30.37,East,90,1.7,-999.0,87,-99.99,,,0.00,Acu-Link.com,2013-03-06 06:57:00,
2013-03-06 01:12:00,17.8,14.6,30.37,East,90,1.7,-999.0,87,-99.99,,,0.00,Acu-Link.com,2013-03-06 07:12:00,
2013-03-06 01:28:00,17.8,14.3,30.37,ESE,112,2.2,-999.0,86,-99.99,,,0.00,Acu-Link.com,2013-03-06 07:28:00,
2013-03-06 01:43:00,18.0,14.5,30.38,West,270,0.0,-999.0,86,-99.99,,,0.00,Acu-Link.com,2013-03-06 07:43:00,
2013-03-06 01:58:00,18.1,14.9,30.37,WNW,292,1.7,-999.0,87,-99.99,,,0.00,Acu-Link.com,2013-03-06 07:58:00,
2013-03-06 02:13:00,19.8,16.6,30.38,WNW,292,1.7,-999.0,87,-99.99,,,0.00,Acu-Link.com,2013-03-06 08:13:00,
2013-03-06 02:28:00,20.8,17.3,30.38,ESE,112,3.7,-999.0,86,-99.99,,,0.00,Acu-Link.com,2013-03-06 08:28:00,
2013-03-06 02:44:00,21.4,17.1,30.38,West,270,1.7,-999.0,83,-99.99,,,0.00,Acu-Link.com,2013-03-06 08:44:00,
2013-03-06 02:59:00,21.6,17.3,30.38,ENE,67,1.7,-999.0,83,-99.99,,,0.00,Acu-Link.com,2013-03-06 08:59:00,
2013-03-06 03:23:00,21.7,17.3,30.38,East,90,3.7,-999.0,83,-99.99,,,0.00,Acu-Link.com,2013-03-06 09:23:00,
2013-03-06 03:38:00,20.8,16.2,30.38,SSE,157,1.7,-999.0,82,-99.99,,,0.00,Acu-Link.com,2013-03-06 09:38:00,
2013-03-06 03:53:00,20.8,16.2,30.37,North,0,2.7,-999.0,82,-99.99,,,0.00,Acu-Link.com,2013-03-06 09:53:00,
2013-03-06 04:08:00,20.8,16.2,30.38,ESE,112,3.7,-999.0,82,-99.99,,,0.00,Acu-Link.com,2013-03-06 10:08:00,
2013-03-06 04:23:00,20.7,16.1,30.38,SE,135,2.2,-999.0,82,-99.99,,,0.00,Acu-Link.com,2013-03-06 10:23:00,
2013-03-06 04:39:00,20.7,16.1,30.38,NNE,22,4.2,-999.0,82,-99.99,,,0.00,Acu-Link.com,2013-03-06 10:39:00,
2013-03-06 04:54:00,20.7,16.1,30.38,SSE,157,3.2,-999.0,82,-99.99,,,0.00,Acu-Link.com,2013-03-06 10:54:00,
2013-03-06 05:09:00,20.7,16.1,30.38,ESE,112,1.1,-999.0,82,-99.99,,,0.00,Acu-Link.com,2013-03-06 11:09:00,
2013-03-06 05:24:00,20.7,16.1,30.39,East,90,0.0,-999.0,82,-99.99,,,0.00,Acu-Link.com,2013-03-06 11:24:00,
2013-03-06 05:40:00,20.7,16.1,30.38,NNW,337,2.2,-999.0,82,-99.99,,,0.00,Acu-Link.com,2013-03-06 11:40:00,
2013-03-06 05:55:00,20.5,15.9,30.39,WSW,247,2.7,-999.0,82,-99.99,,,0.00,Acu-Link.com,2013-03-06 11:55:00,
2013-03-06 06:10:00,20.3,15.7,30.37,North,0,4.2,-999.0,82,-99.99,,,0.00,Acu-Link.com,2013-03-06 12:10:00,
2013-03-06 06:25:00,20.3,15.7,30.37,SSE,157,4.2,-999.0,82,-99.99,,,0.00,Acu-Link.com,2013-03-06 12:25:00,
2013-03-06 06:40:00,20.3,15.7,30.38,East,90,2.2,-999.0,82,-99.99,,,0.00,Acu-Link.com,2013-03-06 12:40:00,
2013-03-06 06:56:00,20.5,16.2,30.39,West,270,1.1,-999.0,83,-99.99,,,0.00,Acu-Link.com,2013-03-06 12:56:00,
2013-03-06 07:11:00,20.7,16.4,30.38,ENE,67,3.2,-999.0,83,-99.99,,,0.00,Acu-Link.com,2013-03-06 13:11:00,
2013-03-06 07:26:00,20.8,16.5,30.38,ENE,67,0.0,-999.0,83,-99.99,,,0.00,Acu-Link.com,2013-03-06 13:26:00,
2013-03-06 07:41:00,21.0,16.4,30.38,East,90,3.2,-999.0,82,-99.99,,,0.00,Acu-Link.com,2013-03-06 13:41:00,
2013-03-06 07:56:00,21.2,16.6,30.38,ESE,112,2.7,-999.0,82,-99.99,,,0.00,Acu-Link.com,2013-03-06 13:56:00,
2013-03-06 08:12:00,21.6,16.7,30.38,ENE,67,5.8,-999.0,81,-99.99,,,0.00,Acu-Link.com,2013-03-06 14:12:00,
2013-03-06 08:27:00,21.7,16.8,30.39,East,90,3.7,-999.0,81,-99.99,,,0.00,Acu-Link.com,2013-03-06 14:27:00,
2013-03-06 08:42:00,22.6,17.1,30.38,WSW,247,2.7,-999.0,79,-99.99,,,0.00,Acu-Link.com,2013-03-06 14:42:00,
2013-03-06 08:57:00,23.4,17.6,30.39,ESE,112,3.7,-999.0,78,-99.99,,,0.00,Acu-Link.com,2013-03-06 14:57:00,
2013-03-06 09:12:00,23.7,17.9,30.39,ENE,67,2.2,-999.0,78,-99.99,,,0.00,Acu-Link.com,2013-03-06 15:12:00,
2013-03-06 09:28:00,26.1,19.6,30.39,South,180,2.7,-999.0,76,-99.99,,,0.00,Acu-Link.com,2013-03-06 15:28:00,
2013-03-06 09:43:00,27.1,20.2,30.40,ESE,112,2.7,-999.0,75,-99.99,,,0.00,Acu-Link.com,2013-03-06 15:43:00,
2013-03-06 09:58:00,26.2,18.7,30.40,ENE,67,0.0,-999.0,73,-99.99,,,0.00,Acu-Link.com,2013-03-06 15:58:00,
2013-03-06 10:13:00,29.3,20.8,30.40,SSE,157,2.7,-999.0,70,-99.99,,,0.00,Acu-Link.com,2013-03-06 16:13:00,
2013-03-06 10:29:00,30.0,20.4,30.38,East,90,2.2,-999.0,67,-99.99,,,0.00,Acu-Link.com,2013-03-06 16:29:00,
2013-03-06 10:44:00,33.1,21.9,30.38,WNW,292,4.2,-999.0,63,-99.99,,,0.00,Acu-Link.com,2013-03-06 16:44:00,
2013-03-06 10:59:00,32.9,21.7,30.39,ESE,112,2.7,-999.0,63,-99.99,,,0.00,Acu-Link.com,2013-03-06 16:59:00,
2013-03-06 11:14:00,32.9,20.9,30.38,East,90,2.2,-999.0,61,-99.99,,,0.00,Acu-Link.com,2013-03-06 17:14:00,
2013-03-06 11:30:00,34.0,22.0,30.38,SW,225,1.7,-999.0,61,-99.99,,,0.00,Acu-Link.com,2013-03-06 17:30:00,
2013-03-06 11:45:00,35.4,22.5,30.37,ESE,112,1.1,-999.0,59,-99.99,,,0.00,Acu-Link.com,2013-03-06 17:45:00,
2013-03-06 12:00:00,35.2,22.3,30.36,SSE,157,2.7,-999.0,59,-99.99,,,0.00,Acu-Link.com,2013-03-06 18:00:00,
2013-03-06 12:15:00,36.3,22.5,30.36,NNW,337,3.7,-999.0,57,-99.99,,,0.00,Acu-Link.com,2013-03-06 18:15:00,
2013-03-06 12:30:00,37.2,23.0,30.36,South,180,2.7,-999.0,56,-99.99,,,0.00,Acu-Link.com,2013-03-06 18:30:00,
2013-03-06 12:46:00,40.1,25.2,30.34,North,0,2.2,-999.0,55,-99.99,,,0.00,Acu-Link.com,2013-03-06 18:46:00,
2013-03-06 13:01:00,38.5,23.3,30.33,ESE,112,3.7,-999.0,54,-99.99,,,0.00,Acu-Link.com,2013-03-06 19:01:00,
2013-03-06 13:16:00,39.6,23.4,30.32,SW,225,3.2,-999.0,52,-99.99,,,0.00,Acu-Link.com,2013-03-06 19:16:00,
2013-03-06 13:31:00,40.5,23.3,30.30,ESE,112,4.2,-999.0,50,-99.99,,,0.00,Acu-Link.com,2013-03-06 19:31:00,
2013-03-06 13:47:00,41.4,23.7,30.29,East,90,5.8,-999.0,49,-99.99,,,0.00,Acu-Link.com,2013-03-06 19:47:00,
2013-03-06 14:02:00,42.4,24.1,30.28,East,90,4.2,-999.0,48,-99.99,,,0.00,Acu-Link.com,2013-03-06 20:02:00,
2013-03-06 14:17:00,42.6,23.8,30.27,NNE,22,1.7,-999.0,47,-99.99,,,0.00,Acu-Link.com,2013-03-06 20:17:00,
2013-03-06 14:32:00,42.4,23.1,30.27,SSE,157,4.7,-999.0,46,-99.99,,,0.00,Acu-Link.com,2013-03-06 20:32:00,
2013-03-06 14:47:00,42.8,23.5,30.25,ESE,112,4.2,-999.0,46,-99.99,,,0.00,Acu-Link.com,2013-03-06 20:47:00,
2013-03-06 15:03:00,42.1,23.3,30.25,ENE,67,3.7,-999.0,47,-99.99,,,0.00,Acu-Link.com,2013-03-06 21:03:00,
2013-03-06 15:19:00,43.7,24.3,30.24,ESE,112,4.7,-999.0,46,-99.99,,,0.00,Acu-Link.com,2013-03-06 21:19:00,
2013-03-06 15:34:00,42.8,24.0,30.24,ESE,112,2.2,-999.0,47,-99.99,,,0.00,Acu-Link.com,2013-03-06 21:34:00,
2013-03-06 15:49:00,44.6,24.6,30.23,South,180,4.7,-999.0,45,-99.99,,,0.00,Acu-Link.com,2013-03-06 21:49:00,
2013-03-06 16:05:00,43.9,24.5,30.22,SSE,157,2.7,-999.0,46,-99.99,,,0.00,Acu-Link.com,2013-03-06 22:05:00,
2013-03-06 16:20:00,43.0,23.7,30.21,East,90,5.3,-999.0,46,-99.99,,,0.00,Acu-Link.com,2013-03-06 22:20:00,
2013-03-06 16:35:00,42.8,24.0,30.21,SSW,202,2.7,-999.0,47,-99.99,,,0.00,Acu-Link.com,2013-03-06 22:35:00,
2013-03-06 16:53:00,42.4,24.1,30.20,ESE,112,5.3,-999.0,48,-99.99,,,0.00,Acu-Link.com,2013-03-06 22:53:00,
2013-03-06 17:09:00,41.2,23.5,30.20,East,90,4.2,-999.0,49,-99.99,,,0.00,Acu-Link.com,2013-03-06 23:09:00,
2013-03-06 17:25:00,41.0,24.3,30.20,ENE,67,6.8,-999.0,51,-99.99,,,0.00,Acu-Link.com,2013-03-06 23:25:00,
2013-03-06 17:40:00,41.2,24.9,30.19,ESE,112,5.3,-999.0,52,-99.99,,,0.00,Acu-Link.com,2013-03-06 23:40:00,
2013-03-06 17:55:00,39.9,24.2,30.19,East,90,2.2,-999.0,53,-99.99,,,0.00,Acu-Link.com,2013-03-06 23:55:00,
2013-03-06 18:11:00,38.5,23.8,30.19,ESE,112,4.7,-999.0,55,-99.99,,,0.00,Acu-Link.com,2013-03-07 00:11:00,
2013-03-06 18:26:00,37.0,23.2,30.20,SSE,157,2.7,-999.0,57,-99.99,,,0.00,Acu-Link.com,2013-03-07 00:26:00,
2013-03-06 18:41:00,36.1,23.6,30.19,ESE,112,4.2,-999.0,60,-99.99,,,0.00,Acu-Link.com,2013-03-07 00:41:00,
2013-03-06 18:56:00,35.2,23.1,30.19,SW,225,2.7,-999.0,61,-99.99,,,0.00,Acu-Link.com,2013-03-07 00:56:00,
2013-03-06 19:11:00,34.7,23.0,30.19,ESE,112,2.7,-999.0,62,-99.99,,,0.00,Acu-Link.com,2013-03-07 01:11:00,
2013-03-06 19:27:00,34.2,23.3,30.20,ESE,112,4.2,-999.0,64,-99.99,,,0.00,Acu-Link.com,2013-03-07 01:27:00,
2013-03-06 19:42:00,33.3,22.8,30.20,ESE,112,3.7,-999.0,65,-99.99,,,0.00,Acu-Link.com,2013-03-07 01:42:00,
2013-03-06 19:57:00,32.9,22.8,30.20,NE,45,4.2,-999.0,66,-99.99,,,0.00,Acu-Link.com,2013-03-07 01:57:00,
2013-03-06 20:12:00,32.7,22.6,30.20,SE,135,3.2,-999.0,66,-99.99,,,0.00,Acu-Link.com,2013-03-07 02:12:00,
2013-03-06 20:28:00,32.0,22.7,30.18,SSE,157,2.2,-999.0,68,-99.99,,,0.00,Acu-Link.com,2013-03-07 02:28:00,
2013-03-06 20:43:00,32.2,22.8,30.17,ESE,112,3.2,-999.0,68,-99.99,,,0.00,Acu-Link.com,2013-03-07 02:43:00,
2013-03-06 20:58:00,32.4,23.0,30.18,ESE,112,4.7,-999.0,68,-99.99,,,0.00,Acu-Link.com,2013-03-07 02:58:00,
2013-03-06 21:13:00,32.0,22.7,30.17,SSE,157,4.2,-999.0,68,-99.99,,,0.00,Acu-Link.com,2013-03-07 03:13:00,
2013-03-06 21:28:00,31.8,22.8,30.18,East,90,7.3,-999.0,69,-99.99,,,0.00,Acu-Link.com,2013-03-07 03:28:00,
2013-03-06 21:44:00,31.5,23.2,30.17,ENE,67,4.7,-999.0,71,-99.99,,,0.00,Acu-Link.com,2013-03-07 03:44:00,
2013-03-06 21:59:00,30.9,23.0,30.19,East,90,2.7,-999.0,72,-99.99,,,0.00,Acu-Link.com,2013-03-07 03:59:00,
2013-03-06 22:14:00,30.6,23.0,30.18,ESE,112,4.2,-999.0,73,-99.99,,,0.00,Acu-Link.com,2013-03-07 04:14:00,
2013-03-06 22:29:00,29.8,22.9,30.19,ESE,112,3.2,-999.0,75,-99.99,,,0.00,Acu-Link.com,2013-03-07 04:29:00,
2013-03-06 22:44:00,29.5,22.9,30.18,South,180,5.3,-999.0,76,-99.99,,,0.00,Acu-Link.com,2013-03-07 04:44:00,
2013-03-06 23:00:00,28.9,22.9,30.19,ESE,112,2.2,-999.0,78,-99.99,,,0.00,Acu-Link.com,2013-03-07 05:00:00,
2013-03-06 23:15:00,28.4,22.4,30.18,South,180,3.7,-999.0,78,-99.99,,,0.00,Acu-Link.com,2013-03-07 05:15:00,
2013-03-06 23:30:00,27.9,22.5,30.19,East,90,4.7,-999.0,80,-99.99,,,0.00,Acu-Link.com,2013-03-07 05:30:00,
2013-03-06 23:45:00,27.3,22.0,30.19,ESE,112,3.7,-999.0,80,-99.99,,,0.00,Acu-Link.com,2013-03-07 05:45:00,